QPF
0.03 0.05 0.08 0.09 0.11 0.12 0.06 0.05 0.08 0.12 0.16 0.16 0.14 0.17 0.17 0.15 0.12 0.11 0.11 0.11 0.13 0.21 0.25 0.18 0.14 0.13 0.17 0.14 0.09 0.07 0.08 0.09 0.08 0.05 0.06 0.07 0.07 0.06 0.06 0.10 0.16 0.18 0.11
0.02 0.04 0.06 0.07 0.11 0.17 0.16 0.12 0.10 0.11 0.15 0.17 0.14 0.17 0.20 0.19 0.18 0.15 0.16 0.20 0.24 0.30 0.24 0.15 0.13 0.14 0.19 0.14 0.09 0.07 0.09 0.09 0.08 0.07 0.07 0.07 0.07 0.06 0.06 0.10 0.17 0.26 0.15
0.03 0.03 0.04 0.06 0.10 0.14 0.15 0.17 0.18 0.17 0.17 0.18 0.16 0.17 0.21 0.23 0.23 0.20 0.20 0.23 0.29 0.27 0.17 0.12 0.13 0.15 0.15 0.14 0.14 0.11 0.11 0.09 0.07 0.07 0.07 0.06 0.05 0.06 0.07 0.09 0.18 0.26 0.16
0.02 0.02 0.03 0.05 0.08 0.11 0.11 0.12 0.14 0.17 0.18 0.16 0.17 0.18 0.17 0.20 0.22 0.21 0.21 0.23 0.23 0.19 0.13 0.11 0.12 0.16 0.17 0.16 0.13 0.12 0.10 0.08 0.06 0.05 0.04 0.04 0.05 0.06 0.08 0.12 0.21 0.22 0.15
0.02 0.02 0.04 0.05 0.08 0.09 0.08 0.08 0.11 0.17 0.18 0.16 0.11 0.13 0.14 0.16 0.16 0.16 0.17 0.19 0.18 0.16 0.13 0.11 0.12 0.17 0.22 0.16 0.14 0.12 0.10 0.07 0.04 0.02 0.02 0.04 0.06 0.06 0.06 0.11 0.20 0.16 0.11
0.02 0.04 0.06 0.05 0.07 0.09 0.08 0.06 0.07 0.11 0.14 0.16 0.13 0.13 0.15 0.15 0.12 0.12 0.12 0.13 0.11 0.10 0.11 0.12 0.17 0.24 0.21 0.14 0.13 0.12 0.09 0.06 0.03 0.02 0.02 0.03 0.04 0.05 0.06 0.10 0.13 0.12 0.09
0.03 0.06 0.09 0.06 0.07 0.10 0.10 0.08 0.08 0.09 0.09 0.12 0.12 0.10 0.12 0.12 0.11 0.11 0.11 0.13 0.11 0.10 0.08 0.11 0.19 0.21 0.16 0.14 0.14 0.14 0.10 0.05 0.03 0.03 0.03 0.04 0.03 0.04 0.06 0.07 0.07 0.07 0.08
0.03 0.05 0.07 0.06 0.06 0.08 0.10 0.08 0.07 0.08 0.07 0.09 0.11 0.11 0.11 0.12 0.11 0.09 0.09 0.10 0.11 0.11 0.09 0.10 0.14 0.16 0.16 0.18 0.17 0.13 0.09 0.05 0.03 0.03 0.04 0.06 0.05 0.04 0.05 0.06 0.06 0.06 0.09
0.03 0.04 0.06 0.07 0.06 0.06 0.07 0.08 0.09 0.09 0.08 0.10 0.11 0.12 0.13 0.15 0.15 0.10 0.08 0.09 0.09 0.09 0.09 0.10 0.12 0.16 0.18 0.20 0.19 0.16 0.11 0.07 0.05 0.04 0.04 0.07 0.05 0.04 0.04 0.05 0.06 0.08 0.11
0.03 0.04 0.06 0.07 0.05 0.04 0.05 0.08 0.09 0.09 0.10 0.11 0.12 0.12 0.17 0.18 0.13 0.13 0.12 0.09 0.08 0.08 0.08 0.08 0.08 0.11 0.14 0.16 0.17 0.19 0.14 0.10 0.07 0.06 0.07 0.08 0.06 0.07 0.06 0.05 0.07 0.10 0.12
0.03 0.02 0.03 0.03 0.03 0.03 0.04 0.06 0.10 0.10 0.10 0.14 0.21 0.26 0.24 0.14 0.10 0.11 0.10 0.09 0.09 0.08 0.09 0.10 0.07 0.08 0.10 0.14 0.18 0.16 0.17 0.12 0.09 0.07 0.08 0.06 0.05 0.07 0.07 0.07 0.07 0.08 0.11
0.03 0.03 0.03 0.03 0.03 0.03 0.03 0.07 0.11 0.11 0.15 0.17 0.26 0.31 0.17 0.09 0.08 0.06 0.07 0.07 0.09 0.08 0.09 0.10 0.09 0.08 0.08 0.10 0.18 0.16 0.15 0.12 0.09 0.07 0.07 0.05 0.06 0.07 0.07 0.07 0.06 0.07 0.09
0.03 0.03 0.02 0.02 0.03 0.03 0.02 0.03 0.05 0.09 0.12 0.14 0.15 0.13 0.08 0.04 0.04 0.04 0.06 0.06 0.05 0.05 0.05 0.06 0.06 0.05 0.06 0.09 0.13 0.14 0.13 0.13 0.12 0.07 0.06 0.05 0.06 0.10 0.11 0.09 0.08 0.11 0.11
0.02 0.02 0.01 0.01 0.02 0.02 0.02 0.02 0.03 0.04 0.05 0.04 0.04 0.04 0.03 0.04 0.05 0.05 0.05 0.04 0.03 0.04 0.04 0.04 0.05 0.04 0.06 0.09 0.08 0.09 0.13 0.15 0.16 0.10 0.06 0.06 0.06 0.08 0.10 0.09 0.09 0.12 0.11
0.01 0.01 0.01 0.01 0.02 0.02 0.03 0.04 0.02 0.02 0.03 0.02 0.03 0.03 0.03 0.04 0.05 0.05 0.05 0.06 0.05 0.05 0.06 0.05 0.07 0.06 0.08 0.09 0.10 0.12 0.18 0.21 0.18 0.13 0.08 0.07 0.05 0.06 0.08 0.10 0.10 0.10 0.11
0.01 0.01 0.01 0.01 0.01 0.02 0.03 0.04 0.04 0.03 0.04 0.04 0.03 0.03 0.04 0.04 0.05 0.05 0.05 0.05 0.06 0.06 0.05 0.05 0.08 0.07 0.07 0.07 0.08 0.13 0.16 0.20 0.20 0.15 0.11 0.10 0.09 0.08 0.09 0.11 0.11 0.12 0.12
0.01 0.01 0.00 0.00 0.01 0.02 0.03 0.03 0.04 0.04 0.03 0.05 0.05 0.04 0.07 0.05 0.06 0.04 0.04 0.04 0.05 0.05 0.05 0.05 0.06 0.06 0.05 0.07 0.08 0.10 0.11 0.14 0.15 0.13 0.12 0.12 0.11 0.11 0.12 0.13 0.15 0.14 0.12
0.01 0.01 0.00 0.00 0.01 0.02 0.04 0.04 0.04 0.04 0.05 0.06 0.06 0.07 0.08 0.05 0.05 0.04 0.03 0.03 0.05 0.05 0.05 0.06 0.06 0.04 0.04 0.05 0.08 0.10 0.12 0.13 0.12 0.11 0.11 0.10 0.10 0.08 0.08 0.09 0.10 0.11 0.11
0.00 0.01 0.01 0.01 0.02 0.02 0.03 0.04 0.05 0.06 0.07 0.07 0.07 0.07 0.08 0.06 0.04 0.06 0.04 0.03 0.04 0.04 0.04 0.04 0.04 0.04 0.05 0.05 0.05 0.10 0.11 0.11 0.12 0.12 0.11 0.10 0.10 0.10 0.09 0.08 0.06 0.07 0.11
0.00 0.00 0.01 0.02 0.03 0.03 0.04 0.05 0.07 0.07 0.07 0.06 0.07 0.06 0.08 0.07 0.05 0.05 0.04 0.04 0.03 0.04 0.04 0.04 0.05 0.05 0.06 0.07 0.05 0.08 0.10 0.10 0.12 0.12 0.10 0.09 0.09 0.08 0.07 0.06 0.08 0.07 0.09
0.00 0.01 0.01 0.02 0.03 0.05 0.05 0.06 0.08 0.09 0.08 0.07 0.08 0.07 0.07 0.06 0.06 0.07 0.06 0.06 0.05 0.05 0.06 0.06 0.06 0.06 0.07 0.08 0.10 0.10 0.10 0.11 0.11 0.11 0.09 0.08 0.07 0.06 0.05 0.05 0.06 0.06 0.10
0.01 0.01 0.01 0.01 0.02 0.03 0.04 0.05 0.06 0.08 0.11 0.09 0.07 0.07 0.05 0.05 0.06 0.06 0.07 0.07 0.07 0.07 0.08 0.09 0.10 0.07 0.06 0.07 0.11 0.12 0.11 0.12 0.10 0.06 0.05 0.05 0.05 0.04 0.03 0.02 0.03 0.04 0.04
0.00 0.01 0.01 0.01 0.02 0.02 0.02 0.02 0.03 0.04 0.06 0.08 0.06 0.06 0.04 0.05 0.07 0.08 0.07 0.06 0.06 0.07 0.09 0.09 0.09 0.08 0.07 0.07 0.07 0.10 0.10 0.10 0.09 0.07 0.05 0.04 0.05 0.05 0.03 0.01 0.02 0.03 0.03
0.01 0.01 0.01 0.01 0.01 0.02 0.02 0.03 0.03 0.03 0.04 0.04 0.05 0.06 0.06 0.06 0.08 0.08 0.07 0.07 0.08 0.08 0.09 0.07 0.06 0.08 0.10 0.09 0.07 0.07 0.07 0.07 0.08 0.09 0.07 0.05 0.03 0.03 0.03 0.02 0.02 0.02 0.03
0.01 0.01 0.01 0.01 0.01 0.01 0.02 0.02 0.03 0.02 0.03 0.03 0.04 0.04 0.05 0.04 0.04 0.04 0.05 0.07 0.07 0.07 0.07 0.06 0.05 0.06 0.07 0.10 0.09 0.06 0.05 0.05 0.07 0.07 0.07 0.05 0.04 0.03 0.03 0.03 0.03 0.02 0.02
0.00 0.00 0.01 0.01 0.01 0.01 0.02 0.02 0.02 0.02 0.02 0.03 0.03 0.03 0.03 0.03 0.02 0.02 0.03 0.05 0.04 0.05 0.06 0.07 0.06 0.04 0.04 0.07 0.06 0.06 0.06 0.06 0.06 0.06 0.05 0.05 0.05 0.03 0.02 0.02 0.01 0.02 0.02
MSLP
1009.93 1009.67 1009.55 1009.59 1009.76 1010.04 1010.36 1010.67 1010.93 1011.13 1011.28 1011.43 1011.61 1011.85 1012.17 1012.55 1012.96 1013.36 1013.71 1013.99 1014.21 1014.40 1014.58 1014.80 1015.06 1015.37 1015.70 1016.02 1016.30 1016.51 1016.65 1016.74 1016.82 1016.92 1017.07 1017.30 1017.57 1017.88 1018.18 1018.45 1018.67 1018.82 1018.94
1010.06 1009.89 1009.83 1009.92 1010.14 1010.43 1010.75 1011.04 1011.27 1011.45 1011.59 1011.75 1011.95 1012.24 1012.61 1013.05 1013.50 1013.92 1014.28 1014.55 1014.75 1014.91 1015.06 1015.25 1015.49 1015.78 1016.09 1016.39 1016.64 1016.82 1016.94 1017.00 1017.06 1017.16 1017.32 1017.55 1017.84 1018.17 1018.48 1018.76 1018.97 1019.12 1019.22
1010.19 1010.09 1010.11 1010.26 1010.51 1010.83 1011.16 1011.45 1011.67 1011.84 1011.99 1012.15 1012.37 1012.68 1013.08 1013.54 1014.00 1014.42 1014.77 1015.02 1015.19 1015.31 1015.45 1015.61 1015.84 1016.12 1016.42 1016.70 1016.93 1017.08 1017.17 1017.22 1017.27 1017.36 1017.53 1017.78 1018.09 1018.43 1018.75 1019.03 1019.24 1019.39 1019.49
1010.32 1010.29 1010.36 1010.56 1010.86 1011.21 1011.56 1011.86 1012.10 1012.29 1012.44 1012.61 1012.85 1013.18 1013.58 1014.03 1014.48 1014.88 1015.19 1015.41 1015.55 1015.66 1015.78 1015.94 1016.15 1016.42 1016.70 1016.96 1017.16 1017.29 1017.36 1017.39 1017.44 1017.54 1017.72 1017.98 1018.31 1018.66 1019.00 1019.28 1019.50 1019.65 1019.76
1010.46 1010.47 1010.58 1010.82 1011.15 1011.54 1011.92 1012.25 1012.52 1012.73 1012.91 1013.11 1013.36 1013.69 1014.08 1014.52 1014.94 1015.31 1015.59 1015.78 1015.90 1016.00 1016.11 1016.26 1016.47 1016.72 1016.98 1017.22 1017.38 1017.48 1017.52 1017.54 1017.58 1017.69 1017.89 1018.18 1018.53 1018.90 1019.25 1019.54 1019.76 1019.92 1020.04
1010.64 1010.66 1010.78 1011.04 1011.39 1011.80 1012.21 1012.58 1012.88 1013.12 1013.34 1013.57 1013.84 1014.18 1014.57 1014.98 1015.38 1015.72 1015.98 1016.15 1016.27 1016.36 1016.47 1016.63 1016.83 1017.07 1017.30 1017.49 1017.61 1017.66 1017.67 1017.67 1017.70 1017.82 1018.04 1018.36 1018.74 1019.13 1019.50 1019.80 1020.03 1020.19 1020.33
1010.87 1010.87 1010.99 1011.24 1011.59 1012.01 1012.43 1012.81 1013.14 1013.42 1013.67 1013.93 1014.24 1014.59 1014.99 1015.40 1015.79 1016.12 1016.37 1016.55 1016.67 1016.78 1016.90 1017.06 1017.26 1017.47 1017.65 1017.79 1017.85 1017.85 1017.81 1017.79 1017.81 1017.95 1018.19 1018.53 1018.94 1019.36 1019.74 1020.06 1020.29 1020.45 1020.59
1011.15 1011.12 1011.21 1011.44 1011.77 1012.17 1012.58 1012.96 1013.30 1013.60 1013.88 1014.17 1014.50 1014.88 1015.30 1015.73 1016.13 1016.47 1016.74 1016.94 1017.10 1017.23 1017.38 1017.55 1017.73 1017.91 1018.05 1018.12 1018.12 1018.05 1017.96 1017.90 1017.92 1018.06 1018.32 1018.69 1019.13 1019.57 1019.97 1020.29 1020.52 1020.68 1020.81
1011.46 1011.41 1011.48 1011.67 1011.97 1012.33 1012.70 1013.05 1013.37 1013.66 1013.95 1014.26 1014.62 1015.03 1015.47 1015.93 1016.36 1016.74 1017.05 1017.29 1017.49 1017.67 1017.85 1018.03 1018.21 1018.36 1018.45 1018.46 1018.39 1018.26 1018.12 1018.02 1018.02 1018.16 1018.44 1018.84 1019.30 1019.76 1020.17 1020.49 1020.71 1020.86 1020.96
1011.80 1011.74 1011.79 1011.96 1012.21 1012.51 1012.83 1013.12 1013.39 1013.65 1013.92 1014.23 1014.60 1015.03 1015.51 1016.00 1016.47 1016.89 1017.25 1017.55 1017.80 1018.03 1018.25 1018.46 1018.64 1018.77 1018.82 1018.78 1018.65 1018.47 1018.28 1018.14 1018.12 1018.26 1018.54 1018.95 1019.43 1019.91 1020.33 1020.65 1020.86 1020.98 1021.06
1012.12 1012.09 1012.15 1012.30 1012.51 1012.76 1013.00 1013.22 1013.42 1013.62 1013.85 1014.13 1014.49 1014.93 1015.42 1015.94 1016.45 1016.92 1017.33 1017.68 1017.99 1018.26 1018.52 1018.76 1018.96 1019.09 1019.12 1019.05 1018.89 1018.67 1018.44 1018.28 1018.23 1018.35 1018.64 1019.05 1019.53 1020.01 1020.43 1020.75 1020.96 1021.06 1021.11
1012.39 1012.42 1012.51 1012.67 1012.86 1013.05 1013.22 1013.36 1013.48 1013.61 1013.78 1014.02 1014.35 1014.78 1015.27 1015.80 1016.32 1016.82 1017.26 1017.66 1018.01 1018.34 1018.64 1018.91 1019.14 1019.29 1019.33 1019.26 1019.09 1018.85 1018.61 1018.42 1018.35 1018.45 1018.71 1019.11 1019.58 1020.06 1020.48 1020.80 1021.01 1021.10 1021.14
1012.60 1012.70 1012.85 1013.03 1013.21 1013.36 1013.48 1013.55 1013.59 1013.64 1013.75 1013.93 1014.23 1014.62 1015.09 1015.61 1016.13 1016.63 1017.09 1017.51 1017.89 1018.25 1018.59 1018.90 1019.16 1019.35 1019.43 1019.39 1019.24 1019.02 1018.77 1018.57 1018.48 1018.55 1018.78 1019.14 1019.58 1020.04 1020.46 1020.78 1020.99 1021.10 1021.14
1012.73 1012.91 1013.11 1013.32 1013.51 1013.65 1013.72 1013.74 1013.73 1013.72 1013.77 1013.90 1014.15 1014.50 1014.93 1015.42 1015.92 1016.40 1016.85 1017.26 1017.65 1018.02 1018.39 1018.74 1019.05 1019.30 1019.43 1019.45 1019.35 1019.15 1018.93 1018.72 1018.61 1018.63 1018.81 1019.11 1019.51 1019.95 1020.35 1020.67 1020.90 1021.03 1021.09
1012.78 1013.02 1013.27 1013.51 1013.71 1013.85 1013.91 1013.90 1013.86 1013.82 1013.82 1013.92 1014.12 1014.42 1014.81 1015.25 1015.71 1016.15 1016.57 1016.96 1017.34 1017.71 1018.10 1018.48 1018.84 1019.14 1019.35 1019.43 1019.40 1019.25 1019.05 1018.85 1018.71 1018.68 1018.78 1019.02 1019.36 1019.74 1020.12 1020.45 1020.70 1020.86 1020.96
1012.77 1013.03 1013.30 1013.56 1013.77 1013.92 1013.98 1013.98 1013.93 1013.88 1013.88 1013.95 1014.12 1014.39 1014.73 1015.12 1015.52 1015.91 1016.28 1016.64 1017.00 1017.36 1017.75 1018.16 1018.56 1018.92 1019.20 1019.35 1019.38 1019.30 1019.13 1018.92 1018.75 1018.66 1018.69 1018.84 1019.10 1019.42 1019.76 1020.08 1020.35 1020.55 1020.70
1012.72 1012.97 1013.23 1013.48 1013.70 1013.85 1013.93 1013.94 1013.92 1013.90 1013.90 1013.97 1014.13 1014.36 1014.66 1015.00 1015.36 1015.70 1016.03 1016.34 1016.67 1017.02 1017.41 1017.83 1018.26 1018.66 1018.99 1019.21 1019.31 1019.27 1019.13 1018.93 1018.72 1018.57 1018.51 1018.57 1018.73 1018.97 1019.27 1019.57 1019.84 1020.08 1020.27
1012.67 1012.88 1013.10 1013.32 1013.52 1013.67 1013.77 1013.82 1013.84 1013.85 1013.88 1013.97 1014.12 1014.33 1014.60 1014.90 1015.21 1015.51 1015.80 1016.08 1016.38 1016.71 1017.09 1017.51 1017.95 1018.38 1018.75 1019.02 1019.16 1019.17 1019.05 1018.85 1018.61 1018.40 1018.26 1018.22 1018.28 1018.44 1018.67 1018.93 1019.20 1019.45 1019.67
1012.66 1012.81 1012.97 1013.14 1013.31 1013.46 1013.58 1013.66 1013.72 1013.77 1013.83 1013.94 1014.09 1014.29 1014.53 1014.80 1015.07 1015.34 1015.60 1015.86 1016.14 1016.46 1016.82 1017.23 1017.67 1018.11 1018.49 1018.79 1018.96 1018.99 1018.90 1018.70 1018.44 1018.18 1017.97 1017.83 1017.80 1017.86 1018.01 1018.22 1018.46 1018.70 1018.93
1012.69 1012.78 1012.88 1013.01 1013.14 1013.28 1013.41 1013.52 1013.62 1013.71 1013.80 1013.92 1014.07 1014.25 1014.47 1014.70 1014.95 1015.20 1015.44 1015.69 1015.97 1016.27 1016.62 1017.01 1017.43 1017.85 1018.23 1018.53 1018.72 1018.77 1018.69 1018.50 1018.24 1017.94 1017.67 1017.46 1017.34 1017.32 1017.38 1017.52 1017.71 1017.93 1018.14
1012.74 1012.80 1012.86 1012.95 1013.07 1013.20 1013.34 1013.48 1013.60 1013.72 1013.83 1013.95 1014.08 1014.24 1014.43 1014.63 1014.85 1015.08 1015.33 1015.58 1015.85 1016.15 1016.48 1016.85 1017.24 1017.63 1017.99 1018.27 1018.46 1018.52 1018.46 1018.29 1018.04 1017.74 1017.44 1017.17 1016.98 1016.87 1016.85 1016.91 1017.03 1017.20 1017.38
1012.76 1012.83 1012.89 1012.97 1013.09 1013.23 1013.39 1013.55 1013.70 1013.83 1013.95 1014.05 1014.16 1014.28 1014.43 1014.60 1014.80 1015.02 1015.25 1015.51 1015.79 1016.09 1016.41 1016.75 1017.10 1017.45 1017.77 1018.03 1018.20 1018.28 1018.24 1018.10 1017.88 1017.59 1017.29 1017.00 1016.75 1016.57 1016.47 1016.45 1016.50 1016.60 1016.73
1012.69 1012.81 1012.91 1013.02 1013.17 1013.33 1013.52 1013.71 1013.88 1014.03 1014.14 1014.23 1014.30 1014.38 1014.48 1014.61 1014.78 1014.98 1015.22 1015.48 1015.77 1016.06 1016.37 1016.68 1017.00 1017.30 1017.57 1017.80 1017.96 1018.05 1018.04 1017.95 1017.77 1017.53 1017.25 1016.95 1016.68 1016.45 1016.28 1016.17 1016.14 1016.17 1016.25
1012.44 1012.66 1012.84 1013.02 1013.21 1013.43 1013.67 1013.90 1014.10 1014.26 1014.37 1014.43 1014.47 1014.50 1014.55 1014.64 1014.78 1014.97 1015.20 1015.47 1015.75 1016.05 1016.34 1016.62 1016.89 1017.15 1017.37 1017.57 1017.72 1017.82 1017.85 1017.81 1017.69 1017.51 1017.27 1017.01 1016.73 1016.46 1016.24 1016.06 1015.95 1015.91 1015.94
1011.99 1012.32 1012.60 1012.86 1013.14 1013.43 1013.72 1014.00 1014.24 1014.42 1014.54 1014.59 1014.60 1014.59 1014.60 1014.65 1014.76 1014.93 1015.15 1015.41 1015.70 1015.99 1016.26 1016.52 1016.75 1016.95 1017.14 1017.31 1017.45 1017.56 1017.63 1017.65 1017.60 1017.49 1017.31 1017.09 1016.82 1016.55 1016.28 1016.05 1015.88 1015.78 1015.75
1011.34 1011.77 1012.15 1012.51 1012.87 1013.24 1013.60 1013.94 1014.23 1014.44 1014.57 1014.63 1014.62 1014.59 1014.57 1014.59 1014.67 1014.81 1015.03 1015.28 1015.56 1015.84 1016.09 1016.32 1016.51 1016.68 1016.83 1016.97 1017.10 1017.23 1017.33 1017.41 1017.43 1017.40 1017.29 1017.11 1016.88 1016.61 1016.33 1016.06 1015.85 1015.70 1015.64
Thickness
5786 5786 5780 5781 5782 5783 5784 5785 5785 5785 5784 5783 5783 5784 5785 5784 5784 5783 5782 5781 5780 5779 5778 5777 5775 5775 5774 5772 5771 5771 5769 5768 5767 5766 5765 5763 5762 5761 5759 5758 5758 5756 5753
5787 5785 5779 5779 5780 5781 5782 5783 5783 5783 5782 5781 5781 5781 5781 5781 5781 5780 5779 5779 5778 5777 5776 5775 5774 5773 5772 5771 5770 5769 5768 5766 5765 5764 5763 5762 5761 5759 5758 5757 5756 5755 5752
5787 5785 5781 5779 5779 5779 5779 5780 5780 5780 5779 5779 5779 5779 5779 5779 5778 5778 5777 5777 5776 5775 5774 5773 5772 5771 5770 5769 5768 5767 5766 5765 5764 5764 5763 5764 5760 5758 5756 5755 5754 5752 5751
5788 5787 5782 5777 5777 5777 5777 5777 5777 5777 5777 5777 5776 5776 5776 5776 5776 5776 5775 5774 5774 5773 5773 5772 5771 5770 5769 5768 5767 5766 5764 5763 5763 5764 5766 5765 5761 5757 5755 5754 5752 5750 5749
5787 5785 5779 5777 5776 5776 5775 5775 5775 5774 5774 5775 5775 5774 5773 5773 5773 5773 5772 5772 5772 5772 5772 5771 5770 5769 5767 5766 5765 5764 5763 5762 5762 5763 5764 5763 5760 5756 5754 5753 5751 5749 5748
5787 5786 5780 5777 5775 5775 5774 5774 5774 5773 5773 5773 5773 5772 5772 5771 5771 5771 5771 5770 5770 5770 5771 5770 5768 5767 5766 5764 5763 5762 5761 5761 5762 5764 5763 5762 5759 5756 5754 5752 5750 5748 5746
5787 5787 5782 5776 5775 5774 5773 5773 5773 5772 5772 5772 5772 5771 5770 5770 5770 5769 5769 5769 5769 5769 5770 5769 5766 5765 5764 5763 5762 5761 5760 5760 5764 5764 5762 5761 5758 5754 5752 5750 5748 5747 5745
5787 5786 5781 5775 5774 5774 5773 5772 5772 5772 5772 5771 5770 5770 5770 5769 5768 5768 5768 5767 5767 5767 5767 5766 5764 5763 5762 5761 5760 5759 5759 5760 5762 5763 5761 5759 5755 5753 5751 5749 5747 5746 5745
5786 5785 5783 5781 5776 5774 5773 5772 5771 5771 5770 5770 5769 5769 5768 5768 5767 5767 5767 5766 5766 5766 5765 5764 5763 5761 5760 5760 5759 5758 5758 5758 5762 5761 5760 5757 5753 5752 5750 5748 5746 5745 5744
5784 5784 5783 5782 5780 5779 5776 5772 5771 5771 5770 5769 5769 5768 5768 5768 5767 5766 5766 5765 5765 5764 5764 5763 5762 5760 5759 5758 5758 5757 5757 5758 5761 5761 5759 5756 5753 5751 5749 5748 5746 5744 5743
5780 5782 5782 5782 5780 5779 5778 5775 5773 5771 5770 5770 5769 5768 5769 5771 5770 5768 5767 5765 5764 5763 5762 5761 5761 5760 5759 5758 5758 5757 5757 5761 5762 5760 5757 5754 5752 5750 5748 5747 5746 5745 5743
5778 5780 5780 5781 5780 5780 5778 5776 5776 5775 5773 5772 5771 5771 5770 5770 5770 5769 5765 5764 5763 5762 5761 5760 5760 5759 5760 5761 5759 5758 5760 5761 5761 5759 5756 5752 5750 5749 5748 5746 5746 5745 5744
5781 5780 5780 5780 5779 5779 5778 5777 5776 5775 5773 5773 5771 5770 5770 5771 5771 5770 5768 5766 5764 5763 5763 5761 5761 5762 5762 5761 5760 5760 5759 5760 5760 5759 5755 5751 5750 5748 5747 5746 5745 5744 5743
5781 5780 5781 5780 5778 5777 5777 5777 5776 5776 5774 5773 5771 5771 5772 5771 5770 5770 5768 5768 5767 5765 5763 5763 5762 5761 5760 5759 5759 5759 5758 5758 5758 5758 5754 5751 5749 5748 5746 5745 5744 5743 5742
5782 5782 5781 5779 5777 5775 5774 5775 5776 5774 5775 5773 5771 5770 5770 5771 5770 5769 5767 5766 5767 5765 5764 5762 5761 5760 5759 5758 5758 5758 5757 5757 5757 5756 5754 5750 5749 5747 5746 5744 5743 5742 5742
5783 5782 5782 5780 5778 5776 5775 5774 5774 5775 5773 5774 5772 5771 5770 5770 5769 5768 5767 5766 5765 5764 5764 5762 5761 5760 5759 5758 5758 5757 5757 5757 5755 5755 5754 5751 5749 5747 5746 5745 5743 5742 5741
5784 5783 5782 5781 5780 5777 5776 5776 5776 5776 5776 5774 5772 5770 5769 5769 5767 5767 5767 5766 5765 5764 5762 5761 5761 5760 5759 5758 5757 5756 5756 5756 5755 5754 5754 5753 5751 5748 5746 5745 5743 5742 5741
5787 5784 5782 5784 5781 5778 5777 5776 5777 5777 5776 5774 5772 5770 5768 5768 5767 5767 5768 5767 5765 5764 5763 5761 5761 5760 5759 5757 5757 5756 5755 5754 5753 5753 5753 5752 5751 5750 5747 5745 5743 5742 5741
5789 5786 5783 5783 5781 5780 5778 5777 5776 5775 5774 5774 5773 5771 5769 5768 5768 5768 5768 5766 5765 5764 5763 5763 5761 5760 5757 5756 5756 5755 5755 5754 5753 5753 5752 5751 5750 5749 5748 5745 5743 5742 5741
5791 5788 5785 5783 5781 5780 5779 5777 5776 5774 5774 5774 5773 5770 5769 5769 5768 5768 5767 5765 5766 5765 5762 5761 5758 5757 5756 5756 5757 5754 5754 5753 5753 5752 5752 5751 5749 5748 5748 5746 5744 5742 5740
5793 5789 5786 5783 5782 5780 5778 5776 5774 5772 5774 5774 5773 5770 5769 5768 5767 5766 5767 5764 5764 5763 5760 5760 5758 5756 5756 5755 5752 5750 5752 5753 5752 5750 5750 5750 5749 5747 5746 5744 5744 5743 5741
5794 5791 5788 5784 5783 5781 5780 5777 5775 5774 5774 5774 5773 5770 5769 5768 5767 5767 5764 5764 5763 5760 5758 5757 5755 5755 5756 5755 5750 5746 5744 5745 5746 5750 5749 5747 5747 5746 5745 5744 5742 5740 5740
5796 5793 5791 5787 5785 5783 5781 5780 5778 5775 5774 5773 5771 5770 5769 5768 5767 5765 5764 5763 5761 5761 5758 5756 5755 5752 5752 5752 5752 5747 5741 5738 5742 5745 5746 5745 5743 5743 5743 5743 5741 5739 5737
5800 5798 5793 5790 5786 5784 5782 5781 5777 5773 5771 5771 5771 5770 5769 5767 5766 5764 5763 5761 5760 5760 5757 5756 5755 5753 5750 5749 5750 5749 5747 5745 5739 5737 5741 5743 5742 5741 5741 5741 5740 5737 5735
5805 5802 5797 5792 5788 5785 5783 5781 5777 5776 5775 5775 5773 5769 5768 5767 5766 5764 5762 5760 5759 5758 5756 5754 5753 5752 5752 5750 5749 5748 5746 5744 5743 5738 5733 5736 5738 5740 5739 5738 5737 5735 5733
5809 5805 5800 5794 5789 5787 5784 5782 5778 5775 5773 5772 5770 5769 5768 5768 5767 5764 5762 5760 5759 5757 5755 5753 5752 5751 5750 5748 5748 5747 5745 5743 5741 5739 5735 5733 5733 5736 5736 5735 5735 5733 5731